Skip Page Navigation
NASA JPL Caltech
NASA Logo - Jet Propulsion Laboratory + View the NASA Portal
+ Near-Earth Object (NEO) Program
Search JPL
JPL Home Earth Solar System Stars & Galaxies Technology
JPL Solar System Dynamics
BODIES ORBITS EPHEMERIDES TOOLS PHYSICAL DATA DISCOVERY FAQ SITE MAP
JPL Small-Body Database Browser
Search: [ help ]  
4581 Asclepius (1989 FC)
Classification: Apollo [NEO, PHA]          SPK-ID: 2004581
Ephemeris | Orbit Diagram | Orbital Elements | Physical Parameters | Discovery Circumstances | Close-Approach Data ]

[ show orbit diagram ]
Orbital Elements at Epoch 2457000.5 (2014-Dec-09.0) TDB
Reference: JPL 46 (heliocentric ecliptic J2000)
 Element Value Uncertainty (1-sigma)   Units 
e .357007667930095 7.554e-08  
a 1.022458029677507 7.6689e-09 AU
q .6574326729459403 8.0741e-08 AU
i 4.919255454530932 7.5178e-06 deg
node 180.2866240056563 9.2369e-05 deg
peri 255.298592684214 9.0267e-05 deg
M 20.46624353357231 1.0739e-05 deg
tp 2456979.031470479345
(2014-Nov-17.53147048)
1.1033e-05 JED
period 377.6301505822493
1.03
4.2486e-06
1.163e-08
d
yr
n .9533137103722616 1.0725e-08 deg/d
Q 1.387483386409074 1.0407e-08 AU
  Orbit Determination Parameters
   # obs. used (total)      164  
   # delay obs. used      2  
   # Doppler obs. used      2  
   data-arc span      9272 days (25.39 yr)  
   first obs. used      1989-03-31  
   last obs. used      2014-08-19  
   planetary ephem.      DE431  
   SB-pert. ephem.      SB431-BIG16  
   condition code      0  
   fit RMS      .51214  
   data source      ORB  
   producer      Otto Matic  
   solution date      2014-Sep-12 13:46:16  

Additional Information
 Earth MOID = .00327134 AU 
 T_jup = 5.914 
[ show covariance matrix ]

Ephemeris | Orbit Diagram | Orbital Elements | Physical Parameters | Discovery Circumstances | Close-Approach Data ]

Physical Parameter Table
Parameter Symbol Value Units Sigma Reference Notes
absolute magnitude H 20.7 mag n/a MPO267726  

4581 Asclepius (1989 FC)          Discovered 1989-Mar-31 by Holt and Thomas at Palomar (675)
Reference: DISCOVERY.DBLast Updated: 2003-08-29

[ hide close-approach data ]
Close-Approach Data   ...sorted by Date/Time (TDB)
Date/Time (TDB) Time Uncertainty
(days_HH:MM)
Body Nominal Distance (AU) Minimum Distance (AU) Maximum Distance (AU) V-relative (km/s) V-infinity (km/s) JD (TDB) Time Uncertainty (minutes) Semi-major axis (km) Semi-minor axis (km) range-LOV angle (deg) N-sigma BP Orbit Ref. Reference Modified
1901-Jun-27 09:24 00:16 Venus 0.110566960172951 0.110227436192453 0.110907929670584 12.6456996067848 12.6441464067678 2415562.891800230 16.0591474097653 22784.4009056101 11.2567666418784 43.9004884710483 788939.638679613 T 46 CATAB v2.0c-linF95 2014-Sep-12 13:46:18 2014-Sep-12 13:46
1909-Aug-01 16:43 00:09 Earth 0.448232627753321 0.447687785940142 0.448777496914676 23.8730538134859 23.8728048112893 2418520.196453013 8.85447709743593 27617.7537751123 6.75011505383248 -6.05113326426685 947962.824009731 T 46 CATAB v2.0c-linF95 2014-Sep-12 13:46:18 2014-Sep-12 13:46
1910-Aug-13 20:25 00:14 Earth 0.197545645102935 0.196871548688006 0.198219657374889 16.2600829336442 16.2592534015019 2418897.350631930 13.8782470106964 31999.526768072 7.3768505415956 -12.7038739379387 725866.957930818 T 46 CATAB v2.0c-linF95 2014-Sep-12 13:46:18 2014-Sep-12 13:46
1911-Aug-25 23:59 00:17 Earth 0.082740363396429 0.0820668115187606 0.083419799529916 8.72893062314255 8.72524062883928 2419274.499592006 17.0842248598516 22237.7522846368 6.08838520928889 41.9247669658458 836731.804814262 T 46 CATAB v2.0c-linF95 2014-Sep-12 13:46:18 2014-Sep-12 13:46
1911-Oct-18 22:34 01:53 Venus 0.0514669803154742 0.0507822365372015 0.0521557706210722 8.32364827783443 8.31857768382583 2419328.440053865 112.689696285312 19413.7625222093 13.1052103930703 18.4187378461607 116108.231673112 T 46 CATAB v2.0c-linF95 2014-Sep-12 13:46:18 2014-Sep-12 13:46
1912-Jul-21 02:42 02:01 Earth 0.297912640524833 0.297468782404458 0.298357298766938 7.4244369306499 7.42323218562664 2419604.612383839 121.232152985348 7556.36396782117 17.4409798932852 7.34176361696331 180724.530109511 T 46 CATAB v2.0c-linF95 2014-Sep-12 13:46:18 2014-Sep-12 13:46
1912-Oct-21 18:12 03:11 Earth 0.278441779484859 0.278409767534242 0.278473964732377 9.74723774396194 9.74625595471815 2419697.258273135 191.018758349366 7288.80634882587 11.9378739044411 -81.6879750280673 2272692.86845306 T 46 CATAB v2.0c-linF95 2014-Sep-12 13:46:18 2014-Sep-12 13:46
1913-Jun-21 06:23 01:51 Earth 0.382162728512936 0.382021461354454 0.382304048420239 8.89300050465232 8.89221647072617 2419939.765739949 111.188773844164 3242.04617993525 23.0089254729354 19.943816876147 528504.063468014 T 46 CATAB v2.0c-linF95 2014-Sep-12 13:46:18 2014-Sep-12 13:46
1913-Dec-01 07:26 03:16 Earth 0.329617311481054 0.329615475041779 0.329619175730408 12.4083499185456 12.407698440608 2420102.809808376 196.05164977613 3645.29278561014 15.3650188282209 -88.9483217903299 2386968.68678465 T 46 CATAB v2.0c-linF95 2014-Sep-12 13:46:18 2014-Sep-12 13:46
1914-May-27 16:04 01:52 Earth 0.387750273216451 0.387655285527181 0.387845282724115 9.10548475848687 9.10473005706021 2420280.169205433 112.03818064235 2921.59836503536 25.006599606769 -36.4318045488023 871477.288818992 T 46 CATAB v2.0c-linF95 2014-Sep-12 13:46:18 2014-Sep-12 13:46
1915-Jan-08 21:34 03:33 Earth 0.303308373814362 0.303270336719077 0.303346413314118 10.7971275229874 10.7963138758714 2420506.398368390 212.999254011979 1618.70902706576 8.45844173883063 -35.3751777422432 2160438.12945536 T 46 CATAB v2.0c-linF95 2014-Sep-12 13:46:18 2014-Sep-12 13:46
1915-Apr-30 18:59 02:05 Earth 0.320095835139065 0.31969980186205 0.320492332559745 8.13526830311433 8.1342450389463 2420618.290713131 125.186880453682 8453.38021863611 18.5171523674367 -16.7578196008104 439330.770314841 T 46 CATAB v2.0c-linF95 2014-Sep-12 13:46:18 2014-Sep-12 13:46
1916-Mar-20 07:39 00:15 Earth 0.132167603627669 0.131199366228795 0.133142703832966 7.07399495562083 7.07114452744448 2420942.818647936 15.2598430244454 17283.4900146571 3.51190516057443 0.234402566090529 10535.5322686468 T 46 CATAB v2.0c-linF95 2014-Sep-12 13:46:18 2014-Sep-12 13:46
1917-Mar-28 02:34 00:19 Earth 0.136259871662862 0.135277141707455 0.137241741839235 14.7323369948064 14.7310096238774 2421315.607249528 18.5358984268565 43131.589214162 2.66626229274189 -0.766082304396901 79122.0103661162 T 46 CATAB v2.0c-linF95 2014-Sep-12 13:46:18 2014-Sep-12 13:46
1918-Apr-09 04:18 00:15 Earth 0.401143595018305 0.400204389633169 0.402082812661831 22.7075818107205 22.7072892982376 2421692.679061641 14.8211647764666 46934.2715520442 1.59903144287382 -0.683187614769926 397708.71279513 T 46 CATAB v2.0c-linF95 2014-Sep-12 13:46:18 2014-Sep-12 13:46
1922-Mar-14 22:12 00:26 Venus 0.114955865355888 0.113884084763312 0.116026678335293 15.2010998440414 15.1998571032552 2423128.424674471 26.1384294118502 48921.6352750414 11.9993601243009 -4.15841706874076 85482.9814827764 T 46 CATAB v2.0c-linF95 2014-Sep-12 13:46:18 2014-Sep-12 13:46
1925-Jun-21 17:02 00:36 Venus 0.0920430595237337 0.0916948600264259 0.0923986877056364 10.8821373978015 10.8799691597462 2424323.210009486 35.660595341184 34685.2355295089 10.2086072570038 57.4485719486205 824486.895559722 T 46 CATAB v2.0c-linF95 2014-Sep-12 13:46:18 2014-Sep-12 13:46
1933-Jul-31 05:29 00:06 Earth 0.481393738983963 0.481003543207055 0.481783951854404 24.8877838076567 24.8875614113175 2427284.728544530 5.90028430754795 19866.2050177362 6.55846802482204 -5.87948809641247 1025634.12431144 T 46 CATAB v2.0c-linF95 2014-Sep-12 13:46:18 2014-Sep-12 13:46
1934-Aug-12 14:28 00:07 Earth 0.226059623896047 0.22570580568321 0.226413423379005 17.1454562271783 17.144768764672 2427662.102595074 6.75228641621452 17019.2594058483 7.3494534917994 -11.2561215878457 752244.59106106 T 46 CATAB v2.0c-linF95 2014-Sep-12 13:46:18 2014-Sep-12 13:46
1935-Aug-25 00:13 00:07 Earth 0.0642008841465173 0.0639845188366911 0.064418450668048 9.43891192653584 9.43451397334142 2428039.508803551 6.5205550273476 9572.7315198135 6.33606517505 52.6933344746847 778418.384799168 T 46 CATAB v2.0c-linF95 2014-Sep-12 13:46:18 2014-Sep-12 13:46
1935-Oct-23 04:39 00:53 Venus 0.068176894250256 0.0679816266397013 0.0683725188229525 8.19110572737315 8.18721624037897 2428098.693636151 52.7358899893744 6054.33227086218 12.6956805550759 31.3050114081146 259091.301951806 T 46 CATAB v2.0c-linF95 2014-Sep-12 13:46:18 2014-Sep-12 13:46
1936-Jul-24 06:52 00:39 Earth 0.287260235165588 0.287117139088986 0.287403434138016 7.23190649847024 7.23062380596027 2428373.786352843 38.6041235136812 2154.62783446905 16.4253410763707 6.31399987448738 156628.75722174 T 46 CATAB v2.0c-linF95 2014-Sep-12 13:46:18 2014-Sep-12 13:46
1936-Oct-18 03:13 00:57 Earth 0.270421622405588 0.270413194630622 0.270430067697648 9.33408860360935 9.33303294478333 2428459.633932394 57.4805303098167 2222.24312100657 11.372095616385 -83.0243177365929 2266909.58087149 T 46 CATAB v2.0c-linF95 2014-Sep-12 13:46:18 2014-Sep-12 13:46
1937-Jun-22 23:28 00:28 Earth 0.380076846731044 0.380049133464301 0.38010456441521 8.84765225529093 8.84685987740751 2428707.477530550 27.7965256539745 425.586841881558 21.9567144141392 23.7966247213532 653884.658696002 T 46 CATAB v2.0c-linF95 2014-Sep-12 13:46:18 2014-Sep-12 13:46
1937-Nov-29 04:16 00:44 Earth 0.328713660027022 0.328701975512128 0.328725354096193 12.3642033172066 12.3635477156426 2428866.677825375 43.73276448454 848.336678278711 15.872588885161 87.6022430543818 2299005.28843188 T 46 CATAB v2.0c-linF95 2014-Sep-12 13:46:18 2014-Sep-12 13:46
1938-May-29 00:07 00:21 Earth 0.389895075227953 0.389867796523742 0.389922354021465 9.12995197734476 9.12920343923259 2429047.504705259 20.7562212296488 898.01867288269 26.6315703189153 -14.2416775126411 343571.516868972 T 46 CATAB v2.0c-linF95 2014-Sep-12 13:46:18 2014-Sep-12 13:46
